Location: R�o Medio
(42.4667°N, 3.0167°W)
Time: 02:15:50
(UTC+00:00)

Cosmos 1428 Rocket - Pass Details

Date: 27 February 2020
Orbit: 948 x 988 km, 82.9° (Epoch: 03 April)

Event Time Altitude Azimuth Distance (km) Brightness Sun altitude
Rises 20:24:45 0° 352° (N) 3,630 7.8 -27.5°
Reaches altitude 10° 20:27:15 10° 354° (N) 2,682 7.0 -28.0°
Enters shadow 20:33:09 81° 37° (NE) 969 4.3 -29.0°
